User: anonymous   Login
Location: Caltech
(34.1382°N, 118.1253°W)
Time: 09:58:03
(UTC-07:00)
Language:

AO-Echo - Orbit

View from above orbital plane
View from above orbital plane
View from above satellite
View from above satellite

Ground track
Ground track

The orbit data is extracted from the following two-line orbital elements,

1 28375U 04025K   15244.79373117  .00000088  00000-0  38681-4 0  9996
2 28375  98.2963 183.0547 0083988  98.0694 263.0035 14.41690122587531
Epoch (UTC): 01 September 2015 19:02:58
Eccentricity: 0.0083988
inclination: 98.2963°
perigee height: 693 km
apogee height: 813 km
right ascension of ascending node: 183.0547°
argument of perigee: 98.0694°
revolutions per day: 14.41690122
mean anomaly at epoch: 263.0035°
orbit number at epoch: 58753

The dashed part of the orbit path shows where the satellite is in the earth's shadow,  

DLR